Weather in Psemen

Russia / Karachay-Cherkess Republic     43°58′52″N   40°58′14″E
temp.,
°C
wind,
m/s
gust,
m/s
humid.,
%
clouds,
%
prec.,
mm/h
press.,
hPa
HPBL,
m
14 august, sun
sun1400:00+17ssw22810 0.0 100930
03:00+16ssw22780 0.0 100834
06:00+17ssw227421 0.0 100824
09:00+25n11539 0.0 1007491
12:00+27n324314 0.0 10061386
15:00+28nne224131 0.1 10061819
18:00+25nnw11700 0.2 100740
21:00+19s22820 0.2 100839
15 august, mon
mon1500:00+18s22735 0.0 100736
03:00+17ssw22705 0.0 100721
06:00+18ssw216816 0.0 100715
09:00+23ne116089 0.0 1007239
12:00+29ne22413 0.0 10051291
15:00+31ene12360 0.0 10051587
18:00+27sw11580 0.0 100514
21:00+21ssw22640 0.0 100730
16 august, tue
tue1600:00+19ssw22640 0.0 100830
03:00+17sw11610 0.0 101012
06:00+17s22710 0.0 101228
09:00+24ene11590 0.0 1011614
12:00+27nne324882 0.0 10111802
15:00+25nnw126680 0.6 1011482
18:00+23wnw11773 0.3 101235
21:00+18s22900 0.4 101429
17 august, wed
wed1700:00+17s22890 0.0 101430
03:00+16s22800 0.0 101333
06:00+16ssw22740 0.0 101422
09:00+24ne11570 0.0 1012572
12:00+28ne22470 0.0 10111485
15:00+29e134322 0.1 10101931
18:00+25n2468100 0.4 1010118
21:00+18ssw329237 1.7 101244
18 august, thu
thu1800:00+17ssw229038 0.0 101228
03:00+17ssw22900 0.0 101127
06:00+16ssw21940 0.7 101119
09:00+23n11682 0.9 1010456
12:00+27n225164 0.3 10091735
15:00+24wnw127716 5.9 1010349
18:00+21s118820 5.0 101112
21:00+17s21943 6.8 101220